Location: Vancouver
(49.2500°N, 123.1330°W)
Time: 16:10:04
(UTC-08:00)

Transit 2A Rocket - Visible Passes

Search period start: 18 January 2017 00:00
Search period end: 28 January 2017 00:00
Orbit: 593 x 911 km, 66.7° (Epoch: 18 January)

Date Brightness Start Highest point End Pass type
(mag) Time Alt. Az. Time Alt. Az. Time Alt. Az.
18 Jan 5.1 18:55:15 10° NW 18:59:33 57° WSW 19:03:26 12° SSE visible
19 Jan 4.4 18:12:49 10° NW 18:17:14 84° NE 18:21:32 10° SE visible
19 Jan 7.5 19:57:09 10° W 19:59:05 13° WSW 20:00:59 10° SW visible
20 Jan 4.7 17:30:31 10° NNW 17:34:49 50° NE 17:39:00 10° SE visible
20 Jan 6.9 19:13:39 10° WNW 19:17:02 22° WSW 19:20:22 10° SSW visible
21 Jan 6.0 18:30:51 10° NW 18:34:53 38° WSW 18:38:53 10° S visible
22 Jan 4.9 17:48:18 10° NW 17:52:38 68° WSW 17:56:55 10° SSE visible
23 Jan 7.7 18:49:43 10° WNW 18:52:15 15° WSW 18:54:48 10° SW visible
24 Jan 6.9 18:06:33 10° WNW 18:10:11 27° WSW 18:13:48 10° S visible
25 Jan 8.5 07:04:52 10° SE 07:07:06 13° ESE 07:09:15 10° E visible
26 Jan 8.5 18:26:56 10° W 18:27:27 10° WSW 18:27:57 10° WSW visible
27 Jan 7.8 17:42:26 10° WNW 17:45:26 18° WSW 17:48:25 10° SSW visible
